Regional Weather Roundup
Issued by NWS

Home | Current Version | Previous Version | Text Only | Print | Product List | Glossary Off
Versions: 1 2 3 4 5 6 7 8 9 10 11 12 13 14 15 16 17 18 19 20 21 22 23 24 25 26 27 28 29 30 31 32 33 34 35 36 37 38 39 40 41 42 43 44 45 46 47 48 49 50

976
ASUS43 KTOP 111808
RWRKS

WEATHER ROUNDUP FOR KANSAS
NATIONAL WEATHER SERVICE GOODLAND KS
1200 PM CST THU FEB 11 2016

NOTE:  "FAIR" INDICATES FEW OR NO CLOUDS BELOW 12,000 FEET WITH NO
SIGNIFICANT WEATHER AND/OR OBSTRUCTIONS TO VISIBILITY.

KSZ001>006-013>018-027>032-041>047-111900-
NORTHWEST KANSAS

CITY           SKY/WX    TMP DP  RH WIND       PRES   REMARKS
GOODLAND       SUNNY     54  27  35 SW14      30.10F
6HR MIN TEMP:  26; 6HR MAX TEMP:  54;

HAYS           CLOUDY    30  19  64 SE5       30.23S
HILL CITY      CLOUDY    32  28  85 S8        30.20F
6HR MIN TEMP:  23; 6HR MAX TEMP:  32;

RUSSELL        SUNNY     35  26  69 E6        30.22F
6HR MIN TEMP:  25; 6HR MAX TEMP:  35;

$$

KSZ061>065-074>080-084>089-111900-
SOUTHWEST KANSAS

CITY           SKY/WX    TMP DP  RH WIND       PRES   REMARKS
DODGE CITY     SUNNY     42  28  57 VRB6      30.21S
6HR MIN TEMP:  25; 6HR MAX TEMP:  42;

ELKHART          N/A     54  30  40 S7          N/A
GARDEN CITY    SUNNY     49  31  49 SW13      30.18F
6HR MIN TEMP:  23; 6HR MAX TEMP:  49;

GREAT BEND     PTSUNNY   32  21  64 E6        30.24F
LIBERAL        SUNNY     48  32  53 S6        30.22F
PRATT          MOSUNNY   35  26  70 CALM      30.23S
6HR MIN TEMP:  24; 6HR MAX TEMP:  35;

$$

KSZ066>073-081>083-090>101-111900-
SOUTHEAST KANSAS

CITY           SKY/WX    TMP DP  RH WIND       PRES   REMARKS
CHANUTE        SUNNY     39  22  50 NE10      30.25F WCI  32
6HR MIN TEMP:  24; 6HR MAX TEMP:  39;

COFFEYVILLE    SUNNY     42  23  46 N9        30.24F
6HR MIN TEMP:  26; 6HR MAX TEMP:  42;

HUTCHINSON     MOSUNNY   38  23  55 E6        30.24F
6HR MIN TEMP:  26; 6HR MAX TEMP:  38;

MEDICINE LODGE   N/A     42  27  55 CALM      30.23F
NEWTON         SUNNY     36  21  55 E8        30.25F
PARSONS        SUNNY     40  23  50 NE8       30.25F
6HR MIN TEMP:  25; 6HR MAX TEMP:  40;

WICHITA INTL   PTSUNNY   41  23  48 NE8       30.22F
6HR MIN TEMP:  29; 6HR MAX TEMP:  41;

WICHITA JABRA  SUNNY     40  24  53 NE8       30.22F
6HR MIN TEMP:  24; 6HR MAX TEMP:  40;

WICHITA MCCONL SUNNY     40  24  53 VRB7      30.22F
WINFIELD       SUNNY     43  23  45 E5        30.23F
6HR MIN TEMP:  29; 6HR MAX TEMP:  44;

$$

KSZ007>012-019>026-033>040-048>060-102>105-111900-
NORTHEAST KANSAS

CITY           SKY/WX    TMP DP  RH WIND       PRES   REMARKS
CONCORDIA      CLOUDY    24  21  88 S5        30.26F FOG
6HR MIN TEMP:  22; 6HR MAX TEMP:  25;

EMPORIA        SUNNY     35  21  56 E10       30.24F WCI  27
6HR MIN TEMP:  22; 6HR MAX TEMP:  35;

LAWRENCE       SUNNY     33  20  58 SE8       30.29F
6HR MIN TEMP:  21; 6HR MAX TEMP:  34;

MANHATTAN      CLOUDY    29  22  75 SE3       30.28F
6HR MIN TEMP:  25; 6HR MAX TEMP:  29;

MARYSVILLE     CLOUDY    27  21  80 SE3       30.27S
OLATHE IND     SUNNY     34  20  56 E9        30.27F
6HR MIN TEMP:  21; 6HR MAX TEMP:  34;

OLATHE EXE     SUNNY     32  19  58 E9        30.26F
6HR MIN TEMP:  21; 6HR MAX TEMP:  33;

SALINA         CLOUDY    31  24  75 CALM      30.28S
6HR MIN TEMP:  28; 6HR MAX TEMP:  31;

TOPEKA BILLARD SUNNY     35  21  56 VRB6      30.29F
6HR MIN TEMP:  22; 6HR MAX TEMP:  35;

TOPEKA FORBES  SUNNY     34  20  56 CALM      30.27F
6HR MIN TEMP:  23; 6HR MAX TEMP:  35;

$$




USA.gov is the U.S. government's official web portal to all federal, state and local government web resources and services.